[[{"header":{"parameterUnit":"m.s-1","parameterCategory":1,"la1":30.2991,"la2":30.254,"lo1":-89.0895,"lo2":-89.0444,"dy":0.0017,"dx":0.0017,"nx":28,"ny":28,"refTime":"2023-03-30T21:00:00:Z","depth":0,"parameterNumber":2,"parameterNumberName":"U-component_of_WINDS"},"data":[0,0,0,0,0,0,0,0,0,0,0,0,0,0,0,0,0,0,0,0,0,0,0,0,0,0,0,0,0,0,0,0,0,0,0,0,0,0,0,0,0,0,0,0,0,0,0,0,0,0,0,0,0,0,0,0,0,0,-1.4001,-1.4001,0,-1.404,-1.4041,-1.4041,-1.4057,-1.4057,-1.4057,-1.4057,-1.41,-1.4101,-1.4102,0,0,0,0,0,0,0,0,0,0,0,0,0,-1.3941,-1.3942,-1.4001,-1.4001,-1.4002,-1.404,-1.4041,-1.4041,-1.4057,-1.4057,-1.4057,-1.4057,-1.4099,-1.4101,-1.4102,0,0,0,0,0,0,0,0,0,0,0,0,0,-1.3972,-1.3942,-1.4,-1.4014,-1.4016,-1.404,-1.4041,-1.4042,-1.4057,-1.4057,-1.4057,-1.4057,-1.4099,-1.4101,-1.4102,-1.4117,0,0,-1.4108,-1.4109,0,0,0,0,0,0,0,0,-1.3971,-1.3975,-1.4012,-1.4013,-1.4015,-1.4044,-1.4036,-1.4067,-1.4057,-1.4042,-1.4057,-1.4057,-1.4081,-1.4085,-1.4092,-1.4119,-1.4121,-1.4108,-1.4109,-1.411,-1.4111,0,0,0,0,0,0,0,-1.3968,-1.3973,-1.4016,-1.4012,-1.4014,-1.4019,-1.4023,-1.4042,-1.4062,-1.4043,-1.4044,-1.4049,-1.4082,-1.4091,-1.4094,-1.4121,-1.4108,-1.411,-1.4111,-1.4112,-1.4163,-1.4163,0,0,0,0,0,0,-1.3964,-1.3971,-1.4015,-1.4018,-1.3992,-1.402,-1.4025,-1.4035,-1.4062,-1.4066,-1.4049,-1.4049,-1.4088,-1.4091,-1.4095,-1.4114,-1.411,-1.4112,-1.4113,-1.4163,-1.4163,-1.4163,0,0,0,0,0,0,-1.3962,-1.3967,-1.4014,-1.3995,-1.4001,-1.4021,-1.4032,-1.4036,-1.4044,-1.4066,-1.407,-1.4053,-1.4088,-1.4093,-1.4112,-1.4116,-1.4113,-1.4114,-1.4162,-1.4163,-1.4163,-1.4152,0,0,0,0,0,0,-1.396,-1.3967,-1.3972,-1.3995,-1.4002,-1.4028,-1.4032,-1.4036,-1.4047,-1.4048,-1.4071,-1.4075,-1.4088,-1.4109,-1.4113,-1.4119,-1.4116,-1.4162,-1.4163,-1.4163,-1.4153,-1.4152,-1.4152,0,0,0,0,0,-1.3958,-1.3968,-1.3972,-1.3977,-1.4008,-1.4029,-1.4033,-1.4046,-1.4047,-1.4053,-1.4067,-1.4074,-1.4115,-1.411,-1.4116,-1.4122,-1.4162,-1.4162,-1.4163,-1.4153,-1.4152,-1.4152,0,0,0,0,0,0,-1.3945,-1.3971,-1.3976,-1.3993,-1.4008,-1.4031,-1.4039,-1.4046,-1.4062,-1.4062,-1.408,-1.4085,-1.4102,-1.4114,-1.4109,-1.4138,-1.4139,-1.4141,-1.4129,-1.4129,-1.4129,-1.4126,-1.4117,0,0,0,0,0,-1.3944,-1.3958,-1.398,-1.3992,-1.4,-1.4018,-1.4027,-1.4036,-1.4054,-1.406,-1.4076,-1.4093,-1.411,-1.412,-1.4137,-1.4154,-1.416,-1.4161,-1.4161,-1.4161,-1.4162,-1.4173,-1.4174,-1.4165,-1.4165,-1.4165,0,0,-1.3943,-1.3958,-1.3966,-1.399,-1.4003,-1.4018,-1.4023,-1.4038,-1.4049,-1.4063,-1.4082,-1.4094,-1.4114,-1.4132,-1.4141,-1.4143,-1.4166,-1.4162,-1.4161,-1.4163,-1.4174,-1.4175,-1.4175,-1.4165,-1.4165,-1.4165,0,0,-1.3947,-1.396,-1.3972,-1.3985,-1.4005,-1.4017,-1.402,-1.4042,-1.405,-1.4069,-1.408,-1.4094,-1.4122,-1.4136,-1.4146,-1.4157,-1.4164,-1.4162,-1.4161,-1.4172,-1.4172,-1.4173,-1.4177,-1.4178,-1.4163,-1.4163,-1.4163,0,-1.3943,-1.3964,-1.3978,-1.3992,-1.4003,-1.4015,-1.4028,-1.404,-1.4065,-1.4072,-1.4073,-1.4109,-1.4123,-1.4146,-1.4148,-1.4156,-1.4161,-1.4159,-1.4171,-1.4172,-1.4173,-1.4177,-1.4178,-1.4162,-1.4162,-1.4162,-1.4162,0,-1.3957,-1.3972,-1.398,-1.4002,-1.4014,-1.4027,-1.4044,-1.4055,-1.4063,-1.4075,-1.4095,-1.4113,-1.4133,-1.4139,-1.4148,-1.4163,-1.4163,-1.4167,-1.4169,-1.4173,-1.4177,-1.4179,-1.4162,-1.4162,-1.4162,-1.4162,0,0,-1.3954,-1.3984,-1.3987,-1.3997,-1.402,-1.4032,-1.4047,-1.4066,-1.4075,-1.4092,-1.4105,-1.4129,-1.4133,-1.4145,-1.4156,-1.4165,-1.4172,-1.4168,-1.4169,-1.4168,-1.4191,-1.4187,-1.4189,-1.4177,-1.4178,-1.4178,-1.4189,0,-1.3961,-1.3987,-1.4,-1.4021,-1.4035,-1.4047,-1.406,-1.4076,-1.4088,-1.4103,-1.4116,-1.4133,-1.4137,-1.4144,-1.4154,-1.4169,-1.4177,-1.4169,-1.419,-1.4191,-1.4185,-1.4191,-1.4187,-1.4197,-1.4191,-1.4191,-1.4191,0,-1.3973,-1.3989,-1.401,-1.4032,-1.4038,-1.405,-1.4069,-1.4082,-1.4101,-1.4109,-1.4123,-1.4134,-1.415,-1.4151,-1.4175,-1.4169,-1.4179,-1.4188,-1.4189,-1.4191,-1.4191,-1.4194,-1.42,-1.4201,-1.4194,-1.4193,-1.4193,0,-1.3969,-1.3996,-1.4012,-1.4021,-1.4046,-1.4054,-1.4065,-1.4084,-1.4095,-1.4112,-1.4119,-1.4139,-1.4149,-1.4164,-1.418,-1.4179,-1.4203,-1.4204,-1.421,-1.421,-1.4215,-1.4214,-1.4223,-1.4221,-1.4221,-1.4221,-1.4221,0,-1.3976,-1.3988,-1.401,-1.402,-1.4035,-1.4051,-1.4066,-1.4078,-1.4095,-1.4108,-1.4121,-1.4133,-1.4153,-1.4168,-1.4181,-1.4199,-1.4204,-1.4212,-1.4215,-1.421,-1.4209,-1.4217,-1.4217,-1.4221,-1.4221,-1.4221,-1.4221,0,-1.3973,-1.3988,-1.4007,-1.403,-1.4036,-1.4046,-1.4066,-1.4077,-1.4089,-1.4106,-1.4111,-1.4132,-1.415,-1.4168,-1.4193,-1.4201,-1.422,-1.4224,-1.4213,-1.4215,-1.422,-1.4219,-1.4234,-1.4237,-1.4233,-1.4233,-1.4233,0,-1.3976,-1.3986,-1.401,-1.4019,-1.403,-1.4045,-1.4057,-1.4073,-1.4084,-1.4107,-1.4115,-1.4135,-1.4151,-1.4181,-1.4198,-1.4218,-1.4222,-1.4226,-1.4225,-1.4221,-1.4223,-1.4222,-1.4223,-1.4226,-1.4226,-1.4226,-1.4226,0,-1.3981,-1.3988,-1.4003,-1.4021,-1.4034,-1.4049,-1.4065,-1.4072,-1.4091,-1.4104,-1.4123,-1.4135,-1.4161,-1.418,-1.4202,-1.4215,-1.4224,-1.4226,-1.4228,-1.4224,-1.4218,-1.4221,-1.4213,-1.4226,-1.4226,-1.4226,-1.4226,-1.4226,-1.3982,-1.3991,-1.4009,-1.4026,-1.4039,-1.4054,-1.4065,-1.4079,-1.4095,-1.4116,-1.4125,-1.4145,-1.4164,-1.4194,-1.4207,-1.4223,-1.4225,-1.4228,-1.4229,-1.423,-1.4229,-1.4215,-1.4227,-1.4227,-1.4227,-1.4227,-1.4227,0,-1.3987,-1.3999,-1.4014,-1.4035,-1.4049,-1.4055,-1.4073,-1.4084,-1.4101,-1.4118,-1.4134,-1.4156,-1.4175,-1.4194,-1.4215,-1.4224,-1.4229,-1.4229,-1.4228,-1.4231,-1.4226,-1.4222,-1.4224,-1.4224,-1.4224,-1.4224,-1.4224,-1.4224,-1.3991,-1.4007,-1.4017,-1.4041,-1.4053,-1.4071,-1.4081,-1.4095,-1.4109,-1.4132,-1.4148,-1.416,-1.4179,-1.4201,-1.4219,-1.4224,-1.4231,-1.423,-1.4237,-1.4231,-1.4231,-1.4231,-1.4228,-1.4231,-1.4231,-1.424,-1.424,-1.4241]},{"header":{"parameterUnit":"m.s-1","parameterCategory":1,"la1":30.2991,"la2":30.254,"lo1":-89.0895,"lo2":-89.0444,"dy":0.0017,"dx":0.0017,"nx":28,"ny":28,"refTime":"2023-03-30T21:00:00:Z","depth":0,"parameterNumber":3,"parameterNumberName":"V-component_of_WINDS"},"data":[0,0,0,0,0,0,0,0,0,0,0,0,0,0,0,0,0,0,0,0,0,0,0,0,0,0,0,0,0,0,0,0,0,0,0,0,0,0,0,0,0,0,0,0,0,0,0,0,0,0,0,0,0,0,0,0,0,0,6.2301,6.2302,0,6.2367,6.2368,6.2369,6.2321,6.2319,6.2317,6.2315,6.238,6.2384,6.2388,0,0,0,0,0,0,0,0,0,0,0,0,0,6.2133,6.2136,6.2301,6.2302,6.2303,6.2367,6.2368,6.2369,6.2321,6.2319,6.2316,6.2314,6.2379,6.2384,6.2388,0,0,0,0,0,0,0,0,0,0,0,0,0,6.2203,6.2137,6.2301,6.2287,6.2287,6.2367,6.2368,6.2369,6.2322,6.2319,6.2316,6.2313,6.2378,6.2383,6.2389,6.2486,0,0,6.2406,6.2408,0,0,0,0,0,0,0,0,6.2199,6.2209,6.2288,6.2288,6.2288,6.2333,6.2332,6.2408,6.2323,6.2308,6.2315,6.2311,6.2367,6.2373,6.2392,6.2489,6.2492,6.2406,6.2409,6.2412,6.2413,0,0,0,0,0,0,0,6.2194,6.2206,6.2327,6.229,6.2289,6.2277,6.2283,6.2347,6.2354,6.2309,6.2306,6.2315,6.2366,6.2387,6.2394,6.2493,6.2406,6.2411,6.2414,6.2416,6.2674,6.2678,0,0,0,0,0,0,6.2191,6.2202,6.2325,6.2329,6.2235,6.2283,6.229,6.2321,6.2354,6.2356,6.2317,6.2312,6.2379,6.2387,6.2396,6.2514,6.2412,6.2417,6.242,6.2671,6.2675,6.2679,0,0,0,0,0,0,6.2188,6.2202,6.2323,6.2265,6.2279,6.2289,6.2325,6.2324,6.2345,6.236,6.2361,6.2338,6.2377,6.2388,6.2464,6.2515,6.2419,6.2425,6.2667,6.2672,6.2677,6.2749,0,0,0,0,0,0,6.2183,6.2201,6.2239,6.2266,6.2283,6.2391,6.2328,6.2328,6.2355,6.2349,6.2379,6.2381,6.2375,6.2456,6.247,6.2521,6.2429,6.2662,6.2669,6.2675,6.2742,6.2756,6.2768,0,0,0,0,0,6.2177,6.2256,6.2241,6.2256,6.233,6.2394,6.2403,6.2396,6.236,6.2397,6.2407,6.238,6.2507,6.2465,6.2479,6.2533,6.2659,6.2667,6.2675,6.2737,6.2754,6.2768,0,0,0,0,0,0,6.2233,6.2259,6.2243,6.2333,6.2362,6.2386,6.2433,6.2414,6.2453,6.2446,6.2434,6.2441,6.2522,6.2535,6.2487,6.263,6.2577,6.2589,6.2619,6.2635,6.2648,6.2644,6.2433,0,0,0,0,0,6.2256,6.2306,6.2326,6.2403,6.2419,6.2424,6.2451,6.2443,6.2472,6.2484,6.2499,6.2528,6.2574,6.2605,6.2648,6.2743,6.275,6.2788,6.28,6.2811,6.2822,6.2875,6.2892,6.2705,6.2705,6.2705,0,0,6.2303,6.2324,6.2356,6.2415,6.2437,6.2489,6.2434,6.2491,6.253,6.2492,6.2567,6.2578,6.261,6.2697,6.2735,6.271,6.2875,6.2821,6.2829,6.2834,6.2885,6.2903,6.2918,6.271,6.2709,6.2709,0,0,6.2418,6.2437,6.2505,6.2528,6.2562,6.2565,6.2581,6.2608,6.2615,6.2689,6.2663,6.2708,6.2788,6.2812,6.2835,6.296,6.2937,6.2974,6.3042,6.3094,6.3109,6.3122,6.3169,6.3185,6.2984,6.2984,6.2984,0,6.2472,6.2552,6.2542,6.2603,6.263,6.2599,6.2668,6.269,6.2735,6.2755,6.2725,6.2826,6.2845,6.2938,6.2969,6.2987,6.3006,6.2971,6.3108,6.3121,6.3133,6.3177,6.3194,6.2988,6.2988,6.2987,6.2987,0,6.2618,6.2673,6.2724,6.2771,6.2803,6.2867,6.2868,6.2902,6.2891,6.2897,6.2974,6.2995,6.3043,6.3064,6.3054,6.3157,6.314,6.3109,6.3056,6.3155,6.3197,6.3214,6.2995,6.2993,6.2992,6.2991,0,0,6.277,6.2812,6.2831,6.2853,6.2888,6.293,6.2993,6.3041,6.3071,6.3103,6.3157,6.3226,6.3198,6.3224,6.3215,6.3261,6.3361,6.3225,6.3225,6.3251,6.3478,6.3503,6.3523,6.3345,6.3349,6.3351,6.3476,0,6.2888,6.3,6.2994,6.3098,6.315,6.3121,6.3176,6.3203,6.321,6.3255,6.3262,6.3312,6.327,6.3286,6.333,6.334,6.3407,6.333,6.3396,6.3399,6.3392,6.3544,6.357,6.3688,6.3492,6.3495,6.3497,0,6.3041,6.3081,6.3191,6.322,6.3241,6.3291,6.3336,6.3378,6.3409,6.3411,6.344,6.3425,6.3489,6.3433,6.3522,6.347,6.3496,6.3505,6.3509,6.3517,6.3456,6.3558,6.3725,6.3743,6.3522,6.352,6.3518,0,6.3145,6.3225,6.3302,6.3321,6.3356,6.3392,6.3408,6.3435,6.3465,6.3503,6.3523,6.3567,6.3593,6.3628,6.3625,6.3584,6.3716,6.3659,6.3721,6.3721,6.3751,6.375,6.3927,6.3764,6.3764,6.3764,6.3764,0,6.3278,6.3348,6.3349,6.3397,6.3473,6.3465,6.3541,6.3553,6.3578,6.3627,6.3603,6.365,6.3642,6.3689,6.3687,6.3762,6.3773,6.3777,6.3776,6.3781,6.3781,6.38,6.3792,6.3769,6.3768,6.3767,6.3766,0,6.3408,6.3411,6.3493,6.352,6.3529,6.3584,6.3607,6.3652,6.3657,6.372,6.3734,6.3742,6.3796,6.3796,6.3858,6.3856,6.3949,6.3937,6.3939,6.3938,6.4,6.3995,6.4197,6.4224,6.4042,6.4044,6.4045,0,6.3494,6.3547,6.358,6.3612,6.3631,6.3682,6.3713,6.3707,6.374,6.3779,6.382,6.3872,6.3913,6.4001,6.4012,6.406,6.4051,6.4118,6.4058,6.4061,6.4055,6.4053,6.4059,6.4131,6.4133,6.4134,6.4136,0,6.3648,6.3648,6.3694,6.3741,6.3779,6.3815,6.3849,6.3876,6.3874,6.3912,6.3968,6.4,6.4063,6.4116,6.4162,6.4177,6.4157,6.4154,6.4172,6.4178,6.4178,6.4182,6.3974,6.415,6.4149,6.4148,6.4147,6.4146,6.3761,6.3807,6.3838,6.3891,6.3916,6.3948,6.3992,6.4004,6.405,6.4102,6.4095,6.4157,6.4187,6.4247,6.4267,6.4316,6.4292,6.4316,6.4323,6.433,6.4338,6.4168,6.4324,6.4323,6.4323,6.4322,6.4322,0,6.3916,6.3935,6.3983,6.4032,6.4073,6.405,6.4086,6.4123,6.4178,6.4208,6.425,6.4315,6.4365,6.4381,6.443,6.4467,6.4459,6.448,6.4479,6.4483,6.4355,6.4336,6.4486,6.4486,6.4486,6.4486,6.4486,6.4486,6.4002,6.408,6.4083,6.4174,6.4191,6.4254,6.4277,6.4307,6.4331,6.4404,6.4447,6.4457,6.4481,6.4533,6.4579,6.4582,6.4602,6.4628,6.4628,6.4508,6.4492,6.4476,6.4459,6.4632,6.4632,6.4753,6.4754,6.4755]}]]